This is the latest recevied weather packets stored in our database for station/object K4KMJ. If no packets are shown the sender has not sent any weather packets the latest 10 day(s).
| Time | Temp. | Humidity | Pressure | Rain* | Wind** | Luminosity | Snow |
|---|---|---|---|---|---|---|---|
| 1777825170 | 22.78° C | 77% | 1020.5 hPa | 0 mm | - | 891 W/m² | - |
| 1777824867 | 22.78° C | 77% | 1020.4 hPa | 0 mm | - | 462 W/m² | - |
| 1777824563 | 22.78° C | 78% | 1020.4 hPa | 0 mm | - | 357 W/m² | - |
| 1777824260 | 22.78° C | 79% | 1020.5 hPa | 0 mm | - | 332 W/m² | - |
| 1777823955 | 22.22° C | 79% | 1020.4 hPa | 0 mm | - | 394 W/m² | - |
| 1777823653 | 22.78° C | 80% | 1020.5 hPa | 0 mm | - | 345 W/m² | - |
| 1777823350 | 22.22° C | 81% | 1020.6 hPa | 0 mm | - | 354 W/m² | - |
| 1777823047 | 22.22° C | 81% | 1020.5 hPa | 0 mm | - | 389 W/m² | - |
| 1777822745 | 21.67° C | 82% | 1020.6 hPa | 0 mm | - | 386 W/m² | - |
| 1777822443 | 21.11° C | 83% | 1020.6 hPa | 0 mm | - | 238 W/m² | - |
| 1777822140 | 21.67° C | 84% | 1020.4 hPa | 0 mm | - | 284 W/m² | - |
| 1777821837 | 21.11° C | 85% | 1020.4 hPa | 0 mm | - | 266 W/m² | - |
| 1777821534 | 21.67° C | 86% | 1020.4 hPa | 0 mm | - | 237 W/m² | - |
| 1777821233 | 21.11° C | 87% | 1020.2 hPa | 0 mm | - | 303 W/m² | - |
| 1777820929 | 21.67° C | 88% | 1020.3 hPa | 0 mm | - | 425 W/m² | - |
| 1777820625 | 21.11° C | 89% | 1020.2 hPa | 0 mm | - | 432 W/m² | - |
| 1777820322 | 21.11° C | 90% | 1020.1 hPa | 0 mm | - | 347 W/m² | - |
| 1777820020 | 21.11° C | 91% | 1020.3 hPa | 0 mm | - | 379 W/m² | - |
| 1777819716 | 20.56° C | 92% | 1019.9 hPa | 0 mm | - | 288 W/m² | - |
| 1777819415 | 20.56° C | 92% | 1020.2 hPa | 0 mm | - | 238 W/m² | - |
| 1777819112 | 20° C | 93% | 1020.1 hPa | 0 mm | - | 242 W/m² | - |
| 1777818809 | 20.56° C | 94% | 1019.8 hPa | 0 mm | - | 221 W/m² | - |
| 1777818504 | 21.11° C | 95% | 1019.9 hPa | 0 mm | - | 232 W/m² | - |
| 1777818202 | 21.11° C | 95% | 1019.8 hPa | 0 mm | - | 653 W/m² | - |
| 1777817898 | 20.56° C | 96% | 1019.8 hPa | 0 mm | - | 555 W/m² | - |
* Rain latest hour (hover to see other rain measurements)
** Current wind speed in m/s (hover to see current wind gust speed)